NOAA 16 DEB, 42368

Orbit data source: Space-Track

NOAA 16 DEB, 42368 is space debris in SSO originally from a launch on Thu, 21 Sep 2000 UTC launched from the Air Force Western Test Range (AFWTR). Debris objects in space refer to the collection of defunct objects orbiting the Earth. Examples of debris include non-operational satellites, rocket bodies, and fragments generated from explosions, collisions, or faulty payload assembly.

Loading next visibility...
Identifier
42368, 2000-055RL
Orbit
SSO
Country
Flag of USUS
Related business
Manufacturer
Unknown
Mission
Spacecraft
Bus & Motor
Unknown
Mass
Unknown
Launch date (UTC)
2000-09-21 (25 years ago)
Launch vehicle
Unknown
Launch site
Air Force Western Test Range (AFWTR)
Object type
Payload
Rocket body
Debris
Shape & HBR
Unknown shape, 0.1 m
Radar Cross Section
Small (<0.1 m²)

Expand to show TLE details & history
Last TLE update: 2 days ago

TLE from 2 days ago
0 NOAA 16 DEB
1 42368U 00055RL  26033.15891555  .00003667  00000-0  14843-2 0  9990
2 42368  98.7246 115.1335 0011613 109.5741 250.6695 14.28350054507972
Epoch: 2026-02-02T03:48Z
TLE epoch observation values (Epoch: 2026-02-02T03:48:50.303Z)
Latitude
-0.00002°
Longitude
-74.4343°
Altitude
802.944 km
Speed
7.451 km/s
True Right ascension
07h 40m 32s
True Declination
0° 00' 00"
Sunlit
Object was in full shadow at epoch
Visualization orbit readout
Latitude
Unknown
Longitude
Unknown
Altitude
Unknown
Speed
Unknown
Apparent Right ascension
Unknown
Apparent Declination
Unknown
Sunlit
N/A
Visualization observer readout
Local Sidereal Time
19:19:06
Azimuth
Unknown
Elevation
Unknown
Doppler factor
Unknown
Orbital elements
Apogee altitude
802.729 km
Perigee altitude
786.07 km
Semi-major axis
7,172.536 km
Eccentricity
0.00116
Inclination
98.7246°
RAAN
115.1335°
Arg. of periapsis
109.5741°
True anomaly
250.54399°
Mean anomaly
250.6695°
Eccentric anomaly
250.60674°
Mean motion
3.57301 °/min
Orbital period
100.76 mins
BSTAR
0.0014843
Loading maneuver chart data...
Computing Atmospheric mass density...
Loading historical data...
Loading historical data...
Loading historical data...
Loading historical data...
Loading historical data...
Loading historical data...
Loading historical data...

Documentation

Showing up to 5 results
|